Time,TemperatureF,DewpointF,PressureIn,WindDirection,WindDirectionDegrees,WindSpeedMPH,WindSpeedGustMPH,Humidity,HourlyPrecipIn,Conditions,Clouds,dailyrainin,SoftwareType,DateUTC
2013-11-22 00:12:00,29.0,-99.9,-100.00,NE,44,1.0,2.0,-999,-99.99,,,-99.99,,2013-11-22 08:12:00,
2013-11-22 00:22:00,27.0,-99.9,-100.00,WNW,299,6.0,7.0,-999,-99.99,,,-99.99,,2013-11-22 08:22:00,
2013-11-22 00:32:00,27.0,-99.9,-100.00,WNW,299,6.0,7.0,-999,-99.99,,,-99.99,,2013-11-22 08:32:00,
2013-11-22 01:12:00,28.0,-99.9,-100.00,NNW,339,3.0,5.0,-999,-99.99,,,-99.99,,2013-11-22 09:12:00,
2013-11-22 01:22:00,28.0,-99.9,-100.00,NNW,332,5.0,6.0,-999,-99.99,,,-99.99,,2013-11-22 09:22:00,
2013-11-22 01:43:00,26.0,-99.9,-100.00,ENE,59,2.0,3.0,-999,-99.99,,,-99.99,,2013-11-22 09:43:00,
2013-11-22 01:54:00,26.0,-99.9,-100.00,NNE,16,3.0,4.0,-999,-99.99,,,-99.99,,2013-11-22 09:54:00,
2013-11-22 02:03:00,26.0,-99.9,-100.00,NNE,16,3.0,4.0,-999,-99.99,,,-99.99,,2013-11-22 10:03:00,
2013-11-22 02:24:00,23.0,-99.9,-100.00,SW,226,2.0,3.0,-999,-99.99,,,-99.99,,2013-11-22 10:24:00,
2013-11-22 02:43:00,25.0,-99.9,-100.00,NNW,335,1.0,2.0,-999,-99.99,,,-99.99,,2013-11-22 10:43:00,
2013-11-22 02:53:00,23.0,-99.9,-100.00,WNW,301,2.0,3.0,-999,-99.99,,,-99.99,,2013-11-22 10:53:00,
2013-11-22 03:12:00,23.0,-99.9,-100.00,WSW,243,1.0,2.0,-999,-99.99,,,-99.99,,2013-11-22 11:12:00,
2013-11-22 03:22:00,23.0,-99.9,-100.00,WSW,243,1.0,2.0,-999,-99.99,,,-99.99,,2013-11-22 11:22:00,
2013-11-22 03:43:00,23.0,-99.9,-100.00,North,-999,0.0,0.0,-999,-99.99,,,-99.99,,2013-11-22 11:43:00,
2013-11-22 03:53:00,21.0,-99.9,-100.00,East,100,3.0,4.0,-999,-99.99,,,-99.99,,2013-11-22 11:53:00,
2013-11-22 04:02:00,21.0,-99.9,-100.00,East,100,3.0,4.0,-999,-99.99,,,-99.99,,2013-11-22 12:02:00,
2013-11-22 04:43:00,19.0,-99.9,-100.00,ESE,109,3.0,5.0,-999,-99.99,,,-99.99,,2013-11-22 12:43:00,
2013-11-22 04:52:00,19.0,-99.9,-100.00,ESE,112,4.0,5.0,-999,-99.99,,,-99.99,,2013-11-22 12:52:00,
2013-11-22 05:12:00,19.0,-99.9,-100.00,ESE,114,6.0,7.0,-999,-99.99,,,-99.99,,2013-11-22 13:12:00,
2013-11-22 05:22:00,18.0,-99.9,-100.00,South,188,3.0,4.0,-999,-99.99,,,-99.99,,2013-11-22 13:22:00,
2013-11-22 05:32:00,18.0,-99.9,-100.00,South,188,3.0,4.0,-999,-99.99,,,-99.99,,2013-11-22 13:32:00,
2013-11-22 06:12:00,17.0,-99.9,-100.00,SE,124,3.0,3.0,-999,-99.99,,,-99.99,,2013-11-22 14:12:00,
2013-11-22 06:22:00,19.0,-99.9,-100.00,ENE,72,0.0,1.0,-999,-99.99,,,-99.99,,2013-11-22 14:22:00,
2013-11-22 06:42:00,15.0,-99.9,-100.00,WNW,301,0.0,1.0,-999,-99.99,,,-99.99,,2013-11-22 14:42:00,
2013-11-22 07:12:00,15.0,-99.9,-100.00,SSE,147,1.0,2.0,-999,-99.99,,,-99.99,,2013-11-22 15:12:00,
2013-11-22 07:22:00,17.0,-99.9,-100.00,SSW,202,0.0,1.0,-999,-99.99,,,-99.99,,2013-11-22 15:22:00,
2013-11-22 07:44:00,17.0,-99.9,-100.00,North,-999,0.0,0.0,-999,-99.99,,,-99.99,,2013-11-22 15:44:00,
2013-11-22 08:13:00,20.0,-99.9,-100.00,East,92,0.0,3.0,-999,-99.99,,,-99.99,,2013-11-22 16:13:00,
2013-11-22 08:23:00,18.0,-99.9,-100.00,NW,309,1.0,2.0,-999,-99.99,,,-99.99,,2013-11-22 16:23:00,
2013-11-22 08:33:00,18.0,-99.9,-100.00,NW,309,1.0,2.0,-999,-99.99,,,-99.99,,2013-11-22 16:33:00,
2013-11-22 09:22:00,22.0,-99.9,-100.00,WNW,289,0.0,2.0,-999,-99.99,,,-99.99,,2013-11-22 17:22:00,
2013-11-22 09:42:00,23.0,-99.9,-100.00,West,263,0.0,1.0,-999,-99.99,,,-99.99,,2013-11-22 17:42:00,
2013-11-22 10:22:00,28.0,-99.9,-100.00,West,261,0.0,2.0,-999,-99.99,,,-99.99,,2013-11-22 18:22:00,
2013-11-22 10:42:00,29.0,-99.9,-100.00,SSW,212,1.0,3.0,-999,-99.99,,,-99.99,,2013-11-22 18:42:00,
2013-11-22 10:52:00,31.0,-99.9,-100.00,SW,223,2.0,3.0,-999,-99.99,,,-99.99,,2013-11-22 18:52:00,
2013-11-22 11:01:00,31.0,-99.9,-100.00,SW,223,2.0,3.0,-999,-99.99,,,-99.99,,2013-11-22 19:01:00,
2013-11-22 11:22:00,32.0,-99.9,-100.00,SSW,212,2.0,3.0,-999,-99.99,,,-99.99,,2013-11-22 19:22:00,
2013-11-22 11:42:00,33.0,-99.9,-100.00,NW,319,0.0,2.0,-999,-99.99,,,-99.99,,2013-11-22 19:42:00,
2013-11-22 11:53:00,36.0,-99.9,-100.00,SSW,208,0.0,2.0,-999,-99.99,,,-99.99,,2013-11-22 19:53:00,
2013-11-22 12:02:00,36.0,-99.9,-100.00,SSW,208,0.0,2.0,-999,-99.99,,,-99.99,,2013-11-22 20:02:00,
2013-11-22 12:22:00,35.0,-99.9,-100.00,NNE,14,3.0,5.0,-999,-99.99,,,-99.99,,2013-11-22 20:22:00,
2013-11-22 12:42:00,37.0,-99.9,-100.00,NNW,346,2.0,5.0,-999,-99.99,,,-99.99,,2013-11-22 20:42:00,
2013-11-22 12:52:00,38.0,-99.9,-100.00,NNW,344,3.0,5.0,-999,-99.99,,,-99.99,,2013-11-22 20:52:00,
2013-11-22 13:02:00,38.0,-99.9,-100.00,NNW,344,3.0,5.0,-999,-99.99,,,-99.99,,2013-11-22 21:02:00,
2013-11-22 13:44:00,39.0,-99.9,-100.00,ESE,123,6.0,10.0,-999,-99.99,,,-99.99,,2013-11-22 21:44:00,
2013-11-22 13:53:00,39.0,-99.9,-100.00,East,85,5.0,7.0,-999,-99.99,,,-99.99,,2013-11-22 21:53:00,
2013-11-22 14:03:00,39.0,-99.9,-100.00,East,85,5.0,7.0,-999,-99.99,,,-99.99,,2013-11-22 22:03:00,
2013-11-22 14:23:00,40.0,-99.9,-100.00,North,354,2.0,5.0,-999,-99.99,,,-99.99,,2013-11-22 22:23:00,
2013-11-22 14:42:00,41.0,-99.9,-100.00,North,7,4.0,8.0,-999,-99.99,,,-99.99,,2013-11-22 22:42:00,
2013-11-22 14:53:00,40.0,-99.9,-100.00,NNW,344,15.0,19.0,-999,-99.99,,,-99.99,,2013-11-22 22:53:00,
2013-11-22 15:02:00,40.0,-99.9,-100.00,NNW,344,15.0,19.0,-999,-99.99,,,-99.99,,2013-11-22 23:02:00,
2013-11-22 15:22:00,38.0,-99.9,-100.00,NNW,344,13.0,17.0,-999,-99.99,,,-99.99,,2013-11-22 23:22:00,
2013-11-22 15:33:00,38.0,-99.9,-100.00,NNW,344,13.0,17.0,-999,-99.99,,,-99.99,,2013-11-22 23:33:00,
2013-11-22 15:53:00,37.0,-99.9,-100.00,NNW,330,9.0,12.0,-999,-99.99,,,-99.99,,2013-11-22 23:53:00,
2013-11-22 16:02:00,37.0,-99.9,-100.00,NNW,330,9.0,12.0,-999,-99.99,,,-99.99,,2013-11-23 00:02:00,
2013-11-22 16:12:00,37.0,-99.9,-100.00,NNW,330,9.0,12.0,-999,-99.99,,,-99.99,,2013-11-23 00:12:00,
2013-11-22 16:22:00,37.0,-99.9,-100.00,NNW,339,8.0,11.0,-999,-99.99,,,-99.99,,2013-11-23 00:22:00,
2013-11-22 16:32:00,37.0,-99.9,-100.00,NNW,339,8.0,11.0,-999,-99.99,,,-99.99,,2013-11-23 00:32:00,
2013-11-22 16:42:00,37.0,-99.9,-100.00,NNW,339,8.0,11.0,-999,-99.99,,,-99.99,,2013-11-23 00:42:00,
2013-11-22 17:11:00,34.0,-99.9,-100.00,East,90,1.0,4.0,-999,-99.99,,,-99.99,,2013-11-23 01:11:00,
2013-11-22 17:22:00,32.0,-99.9,-100.00,North,-999,0.0,0.0,-999,-99.99,,,-99.99,,2013-11-23 01:22:00,
2013-11-22 17:32:00,32.0,-99.9,-100.00,North,-999,0.0,0.0,-999,-99.99,,,-99.99,,2013-11-23 01:32:00,
2013-11-22 18:11:00,31.0,-99.9,-100.00,East,92,3.0,5.0,-999,-99.99,,,-99.99,,2013-11-23 02:11:00,
2013-11-22 18:22:00,30.0,-99.9,-100.00,ESE,116,5.0,7.0,-999,-99.99,,,-99.99,,2013-11-23 02:22:00,
2013-11-22 18:42:00,27.0,-99.9,-100.00,SE,127,7.0,8.0,-999,-99.99,,,-99.99,,2013-11-23 02:42:00,
2013-11-22 19:44:00,26.0,-99.9,-100.00,North,-999,0.0,0.0,-999,-99.99,,,-99.99,,2013-11-23 03:44:00,
2013-11-22 19:53:00,25.0,-99.9,-100.00,ENE,76,0.0,2.0,-999,-99.99,,,-99.99,,2013-11-23 03:53:00,
2013-11-22 20:02:00,22.0,-99.9,-100.00,ESE,119,4.0,5.0,-999,-99.99,,,-99.99,,2013-11-23 04:02:00,
2013-11-22 20:03:00,25.0,-99.9,-100.00,ENE,76,0.0,2.0,-999,-99.99,,,-99.99,,2013-11-23 04:03:00,
2013-11-22 20:23:00,24.0,-99.9,-100.00,SSE,147,2.0,4.0,-999,-99.99,,,-99.99,,2013-11-23 04:23:00,
2013-11-22 20:53:00,22.0,-99.9,-100.00,ESE,119,4.0,5.0,-999,-99.99,,,-99.99,,2013-11-23 04:53:00,
2013-11-22 21:00:00,22.0,-99.9,-100.00,ESE,102,0.0,2.0,-999,-99.99,,,-99.99,,2013-11-23 05:00:00,
2013-11-22 21:23:00,22.0,-99.9,-100.00,East,99,1.0,2.0,-999,-99.99,,,-99.99,,2013-11-23 05:23:00,
2013-11-22 21:43:00,22.0,-99.9,-100.00,ESE,102,0.0,2.0,-999,-99.99,,,-99.99,,2013-11-23 05:43:00,
2013-11-22 21:53:00,22.0,-99.9,-100.00,ESE,102,0.0,2.0,-999,-99.99,,,-99.99,,2013-11-23 05:53:00,
2013-11-22 22:22:00,21.0,-99.9,-100.00,ESE,104,1.0,2.0,-999,-99.99,,,-99.99,,2013-11-23 06:22:00,
2013-11-22 22:42:00,20.0,-99.9,-100.00,SW,220,1.0,3.0,-999,-99.99,,,-99.99,,2013-11-23 06:42:00,
2013-11-22 23:22:00,20.0,-99.9,-100.00,SSW,206,0.0,1.0,-999,-99.99,,,-99.99,,2013-11-23 07:22:00,
2013-11-22 23:42:00,20.0,-99.9,-100.00,North,8,3.0,5.0,-999,-99.99,,,-99.99,,2013-11-23 07:42:00,